Weather in Chernaya

Russia / Udmurt Republic     57°03′20″N   53°30′19″E
temp.,
°C
wind,
m/s
gust,
m/s
humid.,
%
clouds,
%
prec.,
mm/h
press.,
hPa
HPBL,
m
2 july, sat
sat201:00+10nne346952 0.0 101652
04:00+9nne2273100 0.0 101637
07:00+14nne247167 0.0 1016199
10:00+19nne23525 0.0 10151235
13:00+21ne234589 0.0 10142134
16:00+20nne1361100 0.0 1014467
19:00+19nw0066100 0.0 101311
22:00+15nnw227099 0.0 101321
3 july, sun
sun301:00+14n257583 0.0 1013146
04:00+10n35831 0.0 101387
07:00+14nne24688 0.0 1013238
10:00+18nne335895 0.0 1012822
13:00+19ne3358100 0.0 10121250
16:00+18nne5672100 0.8 10111048
19:00+17nne486762 0.3 10111045
22:00+12n33893 0.3 101256
4 july, mon
mon401:00+10n38955 0.0 1012160
04:00+9n39965 0.0 1012191
07:00+14ne48795 0.0 1012405
10:00+18ne575838 0.0 10131163
13:00+20ne5748100 0.0 10132166
16:00+21ne5845100 0.0 10132344
19:00+18nne246898 0.0 1013137
22:00+14nne227096 0.0 101521
5 july, tue
tue501:00+11nne2271100 0.0 101520
04:00+10nne2271100 0.0 101617
07:00+15nne126348 0.0 1017161
10:00+20n234918 0.0 1016844
13:00+23nne244285 0.0 10151984
16:00+24nne244285 0.0 10152003
19:00+21nw2264100 0.0 101542
22:00+16wnw227580 0.0 101528
6 july, wed
wed601:00+14wnw34785 0.0 101557
04:00+13wnw368224 0.0 101596
07:00+18wnw37695 0.0 1015239
10:00+24nw46480 0.0 1014791
13:00+28nw45400 0.0 10142061
16:00+28nw44417 0.0 10132321
19:00+24nw24610 0.0 101381
22:00+19wnw11790 0.0 101411